Location: Newark
(13.8625°N, 100.5144°E)
Time: 04:00:04
(UTC+00:00)

Hubble Space Telescope - Pass Details

Date: 15 May 2021
Orbit: 535 x 539 km, 28.5° (Epoch: 21 June)

Event Time Altitude Azimuth Distance (km) Brightness Sun altitude
Exits shadow 21:51:28 23° 230° (SW) 1,141 1.8 -14.3°
Maximum altitude 21:53:51 67° 152° (SSE) 575 0.9 -13.7°
Drops below altitude 10° 21:57:55 10° 69° (ENE) 1,772 4.9 -12.8°
Sets 22:00:11 0° 67° (ENE) 2,662 6.5 -12.3°
